RH
90 90 91 90 91 91 90 90 89 89 87 85 84 85 86 86 74 65 68 38 68 71 66 43 34 34 37 81 61 57 86 81 69 59 44 36 30 24 17 39 92 94 81 79 99
90 90 91 90 90 89 88 89 87 87 85 83 83 86 87 88 78 74 72 74 66 59 49 64 70 59 48 70 81 61 77 75 52 48 42 36 29 25 17 44 92 91 92 95 99
91 91 90 89 87 87 88 86 86 84 81 81 85 88 86 86 66 61 71 61 60 52 46 43 49 62 73 51 67 78 74 55 47 42 42 42 33 26 20 27 78 90 87 94 94
92 91 88 88 87 85 85 83 81 80 80 81 85 86 77 75 14 72 60 39 41 39 38 38 44 52 75 85 60 72 60 57 54 55 55 49 44 40 26 22 51 80 78 88 97
92 90 86 86 86 85 78 67 77 78 80 81 82 84 70 80 77 41 43 40 41 42 40 45 50 52 61 66 68 74 66 58 53 61 56 50 50 42 34 36 82 83 77 90 95
92 91 88 84 86 78 51 22 70 78 80 83 79 78 75 58 38 41 40 36 34 38 43 45 51 47 60 62 68 60 64 60 58 57 54 52 47 38 43 82 93 84 81 92 95
93 92 90 88 82 63 33 25 48 61 43 80 74 72 76 58 42 44 31 31 33 35 46 43 44 54 57 71 61 70 76 62 63 59 55 45 46 43 60 93 87 80 75 92 96
93 94 92 87 72 57 35 25 25 28 39 47 67 66 75 42 35 34 30 31 35 35 38 40 42 56 66 63 69 76 77 91 51 58 57 50 61 38 74 94 87 82 75 94 97
94 92 84 78 55 47 33 20 30 33 29 28 55 61 61 36 29 30 31 35 39 40 43 44 48 68 80 90 94 85 82 90 80 58 58 53 54 40 55 90 94 86 80 91 97
94 92 62 74 43 45 38 18 26 24 33 40 41 47 35 36 34 34 29 32 48 55 60 55 62 83 94 99 94 86 96 92 85 60 72 58 48 40 44 84 96 91 82 90 98
95 62 29 52 38 49 30 33 62 46 62 70 62 62 51 37 38 31 41 49 59 66 85 81 97 95 83 78 89 81 79 92 90 61 65 69 71 43 40 71 97 90 83 96 98
90 40 29 20 38 42 41 69 76 66 90 63 65 65 55 48 50 45 49 66 72 90 83 90 96 74 61 82 93 89 93 89 83 64 67 66 55 44 49 60 89 93 85 96 98
78 38 28 20 30 41 56 60 82 78 93 62 50 43 35 34 45 67 67 76 86 91 90 97 76 91 74 97 88 94 89 84 93 78 57 61 60 64 66 78 98 93 86 92 98
55 41 36 23 28 44 56 54 80 74 82 34 35 35 36 40 50 57 69 79 81 95 90 90 89 95 84 90 79 94 68 67 91 94 89 71 85 64 66 85 98 90 94 95 96
41 37 37 40 39 50 47 64 78 84 54 33 43 32 39 46 47 48 68 73 82 84 84 70 79 80 98 82 66 74 74 79 92 97 95 98 86 63 76 91 94 92 98 99 100
40 35 34 40 40 40 49 76 77 65 50 58 50 53 60 50 49 54 65 66 81 83 77 80 67 86 100 93 86 88 81 93 97 94 99 96 82 72 90 84 95 93 100 100 98
35 35 36 37 42 38 59 70 72 63 53 57 65 60 70 64 64 69 83 90 94 95 90 79 71 64 79 88 80 85 81 96 95 97 92 95 84 85 82 96 97 95 99 98 100
31 36 39 30 40 46 44 66 65 69 82 59 64 70 69 69 64 80 84 86 88 92 88 100 83 74 74 91 99 96 83 93 94 95 94 96 89 91 93 95 99 100 99 99 98
36 42 36 28 36 48 66 88 82 83 66 77 72 82 83 70 80 83 90 86 88 93 98 98 87 74 77 82 79 72 89 61 91 96 93 89 73 74 90 95 97 100 98 99 99
55 65 41 30 33 32 84 74 65 55 65 79 96 83 96 89 88 91 92 76 85 79 89 96 96 89 88 70 65 64 62 70 86 93 99 94 91 90 74 98 92 99 100 100 98
60 65 44 30 33 71 84 77 62 47 63 89 95 98 87 95 95 99 88 76 79 83 89 94 96 76 80 94 92 91 89 77 75 88 96 97 99 83 90 92 97 100 99 96 99
67 72 48 40 77 97 78 76 50 54 54 71 86 94 91 87 98 97 88 82 76 83 94 88 97 99 80 64 81 95 93 85 88 82 95 85 95 81 97 99 94 97 100 100 99
73 76 58 26 72 93 67 52 58 60 61 64 73 75 73 89 95 83 78 66 66 87 91 91 95 96 75 67 62 97 82 80 87 89 97 90 88 90 98 98 98 100 100 100 94
84 81 84 88 91 80 85 68 76 58 61 64 72 69 82 87 73 88 78 68 61 81 63 87 96 95 96 94 95 95 87 80 82 92 94 91 87 86 95 96 99 98 98 100 99
82 89 73 91 89 85 87 90 83 77 61 67 67 77 94 99 97 91 80 72 68 78 80 90 97 98 88 79 82 84 97 89 85 80 84 84 97 85 83 97 96 92 97 98 99
88 89 87 89 69 88 91 90 75 78 76 73 84 78 94 98 93 95 93 84 85 83 94 89 94 95 98 67 83 94 89 89 92 86 82 87 90 68 86 92 94 94 95 90 92
77 74 86 86 94 92 91 77 69 78 65 72 82 95 98 87 77 74 75 89 94 97 96 97 98 94 98 86 85 86 99 96 96 91 90 90 76 72 88 82 90 95 94 93 96
Wind_Speed
20 20 20 22 23 23 24 24 24 24 24 25 25 25 24 25 25 15 4 2 6 9 10 12 12 10 7 4 5 5 3 11 7 8 6 4 1 4 2 5 4 5 6 11 27
20 21 22 23 24 26 26 25 25 24 24 24 25 24 22 19 20 7 9 5 4 9 10 10 5 10 3 4 6 11 11 10 5 6 2 9 1 2 1 3 3 4 9 29 31
21 22 23 24 25 26 27 27 25 24 25 24 24 22 18 16 3 2 5 7 7 10 10 10 8 2 3 3 4 8 22 13 2 3 3 5 7 2 1 4 6 13 22 18 26
22 22 23 25 26 28 29 28 26 25 24 22 20 17 13 7 5 2 8 7 10 14 11 10 5 7 3 5 3 13 24 16 8 7 4 5 8 10 3 4 7 18 26 20 17
23 24 25 27 28 29 30 29 27 25 21 19 16 13 6 4 5 9 7 10 14 13 8 3 3 4 5 5 7 18 19 16 13 8 14 16 15 8 8 2 12 16 21 18 14
24 25 27 29 30 31 30 32 30 26 20 15 11 9 3 5 4 8 14 16 17 15 11 5 6 5 6 7 10 7 14 12 11 15 9 18 7 4 2 6 14 20 18 16 15
25 25 28 30 31 32 30 33 32 25 14 9 5 4 2 6 9 11 17 20 18 14 4 12 12 4 3 7 6 6 10 14 12 12 14 7 8 7 6 7 18 18 18 13 12
24 25 27 29 30 28 30 34 27 15 11 5 6 1 3 8 10 13 23 21 20 16 14 16 11 5 4 5 5 5 5 6 13 13 16 7 15 6 9 16 15 16 17 13 13
25 26 27 29 30 25 29 30 20 7 18 1 4 2 5 13 14 19 19 13 17 14 16 17 5 5 3 3 5 5 7 9 7 11 11 15 6 9 9 14 16 15 16 12 13
26 27 29 29 27 23 27 15 11 11 12 9 6 3 4 6 14 24 21 19 5 5 6 3 1 4 2 4 5 4 6 5 7 8 12 12 5 9 10 10 14 16 15 11 12
26 28 31 28 21 20 27 4 9 7 10 1 4 3 6 17 19 12 12 11 3 1 3 2 2 7 10 11 13 8 10 13 7 10 7 15 13 9 9 9 8 15 16 10 12
26 28 29 26 11 17 21 8 4 4 6 4 7 6 15 10 5 7 15 6 4 9 5 2 7 10 10 10 11 12 8 8 8 10 4 2 18 6 7 5 13 17 16 13 11
26 28 26 25 5 18 15 12 1 4 2 7 5 3 6 5 5 7 7 6 4 6 7 5 6 12 6 6 8 6 9 3 6 7 3 7 3 5 3 5 6 9 13 14 18
26 26 23 23 3 18 4 21 2 2 4 7 8 5 10 12 1 4 6 3 3 7 8 6 3 6 8 6 8 2 7 5 5 1 3 0 4 2 4 5 7 12 11 11 11
25 27 18 12 10 6 14 11 3 1 4 15 7 5 12 4 7 10 7 3 7 10 5 5 6 10 6 5 7 6 7 9 7 2 2 5 4 3 4 4 9 10 9 7 6
25 24 14 10 12 14 17 1 2 5 3 8 8 10 10 6 6 11 6 6 2 6 5 7 6 5 5 3 4 6 6 5 3 3 1 4 4 3 2 1 7 5 8 9 9
25 17 7 12 13 21 13 3 5 6 6 9 7 9 12 9 7 8 6 8 11 10 6 7 4 4 7 5 6 7 4 2 3 1 4 3 4 3 6 8 3 12 10 9 7
24 9 4 11 19 16 4 5 9 3 4 4 6 13 4 9 5 7 8 10 3 7 5 5 8 9 8 3 1 1 2 2 2 2 0 1 3 3 5 6 5 8 8 8 8
21 8 2 20 16 9 5 6 6 5 4 6 9 5 5 5 2 7 5 9 4 6 4 4 4 5 3 4 1 3 3 2 4 2 1 2 3 2 5 9 7 8 7 5 6
14 7 4 20 11 5 5 4 3 1 3 2 2 3 4 6 7 7 6 3 9 7 4 4 5 1 6 5 4 2 2 3 3 2 4 4 3 1 4 3 5 5 4 3 4
4 3 8 14 6 6 4 3 1 2 2 2 1 3 4 2 2 4 4 5 8 10 6 3 2 6 2 5 4 6 4 3 3 3 2 2 1 2 4 3 6 5 6 7 4
2 2 10 9 4 2 2 3 3 2 3 1 1 2 3 4 3 3 2 5 8 7 6 3 3 4 3 3 2 2 2 2 3 4 2 2 2 4 3 4 4 6 4 3 4
1 2 6 5 3 2 4 1 2 3 2 2 2 1 2 3 3 3 5 5 11 7 7 5 2 4 7 5 4 4 5 3 1 2 2 3 3 2 4 5 4 6 4 5 7
2 2 4 4 1 5 2 2 3 3 1 2 2 3 4 3 1 5 4 5 13 4 15 2 1 3 2 3 3 4 5 5 2 3 2 1 2 3 4 3 4 2 2 3 4
2 2 3 1 2 3 3 2 2 3 1 3 0 2 2 2 4 2 4 7 4 8 7 4 2 2 5 5 1 3 3 8 5 1 3 4 4 3 2 4 4 4 2 2 2
3 3 2 2 2 4 1 3 2 3 2 2 2 4 3 3 5 6 8 4 2 6 5 6 2 5 3 3 4 2 8 5 5 5 6 5 5 3 3 5 3 3 4 3 3
4 3 4 2 3 3 4 4 4 3 3 5 4 1 4 5 4 10 9 7 6 6 4 3 3 5 4 4 4 4 3 3 2 2 2 1 2 3 3 4 2 3 4 4 3
Wind_Direction
12 8 5 2 357 354 353 351 347 345 342 340 338 337 336 333 331 345 329 51 10 340 333 324 307 308 317 245 212 145 208 244 234 186 228 214 170 299 67 91 50 344 151 154 147
9 6 2 360 355 352 349 347 345 343 340 338 335 335 332 336 334 350 15 338 352 12 20 7 340 329 288 263 222 206 223 237 191 181 274 245 271 287 151 138 48 60 100 134 141
7 3 0 357 354 349 345 343 343 342 339 339 338 339 337 340 4 14 40 27 354 340 331 330 315 288 275 273 229 230 232 221 292 321 325 307 319 274 207 217 197 156 147 146 143
3 1 358 355 351 348 343 340 340 340 340 342 345 348 346 359 25 24 351 354 337 339 340 348 351 327 262 253 259 259 251 236 243 298 305 314 323 327 234 265 156 159 154 151 144
0 357 356 353 348 346 343 340 339 339 338 340 345 351 14 23 261 38 355 337 335 334 314 305 284 259 251 270 269 255 272 275 271 238 260 280 271 249 297 308 134 146 157 153 143
360 356 354 352 347 345 345 342 337 335 330 330 341 345 43 22 330 319 342 335 330 316 278 251 233 232 262 255 252 287 292 273 265 246 233 245 263 189 294 133 146 158 163 153 143
357 355 352 349 347 344 345 342 337 339 341 334 347 23 77 234 345 340 339 326 327 300 277 265 256 189 277 297 265 293 282 277 264 248 238 212 247 224 181 138 159 165 164 146 138
355 353 352 347 347 345 342 345 342 355 17 2 353 29 258 337 352 314 328 325 321 298 288 290 270 211 210 259 314 310 270 268 254 230 237 216 244 230 180 148 167 167 166 151 145
353 350 350 348 348 348 344 345 350 11 356 73 112 94 326 327 333 327 318 295 308 297 287 282 248 219 280 275 271 233 247 247 273 204 205 203 214 208 178 154 163 168 170 156 140
352 349 349 349 351 350 353 347 345 11 86 86 74 80 313 293 313 310 310 303 292 320 321 59 281 207 299 205 253 220 240 225 231 203 195 211 228 188 170 156 163 165 173 155 149
349 351 352 351 356 358 5 26 19 351 25 236 287 259 269 297 309 318 4 314 346 222 290 292 167 226 230 223 248 259 272 285 309 261 157 192 250 210 186 157 154 167 172 152 156
349 352 351 352 9 357 27 66 144 263 315 271 240 260 270 273 303 344 349 332 354 302 322 259 251 239 245 254 234 242 254 264 276 264 123 208 210 206 155 165 170 162 164 161 141
349 350 352 351 358 2 51 40 11 182 255 300 236 268 312 326 322 309 5 341 306 314 320 266 255 321 231 245 233 232 229 231 270 327 100 188 325 160 19 79 117 157 164 166 156
347 349 350 354 10 347 39 350 76 177 68 354 340 349 352 327 319 315 352 42 316 308 316 280 280 316 303 209 191 193 204 206 234 323 169 19 234 256 164 106 149 157 156 153 150
346 347 347 356 325 349 325 345 116 116 30 325 322 319 317 5 287 336 348 12 316 315 301 276 295 319 253 228 169 219 175 192 200 170 34 356 82 249 139 162 173 155 134 103 71
342 344 339 346 329 335 334 324 119 42 297 328 337 335 355 346 331 332 20 3 237 306 244 254 281 4 326 338 327 106 92 72 59 85 101 182 126 234 190 185 153 140 131 124 103
340 342 334 346 328 334 338 75 33 80 11 332 335 334 331 323 330 3 348 13 33 344 357 317 335 2 351 41 355 40 65 58 42 114 212 332 72 31 348 351 347 168 135 123 108
338 341 332 348 336 332 355 49 67 272 301 295 305 308 352 1 343 332 346 14 339 11 312 353 340 355 342 14 342 48 158 136 152 214 32 203 129 308 13 31 46 82 102 105 93
337 338 353 348 342 340 67 47 184 209 252 310 317 352 322 351 3 0 356 11 324 355 333 341 297 319 289 304 332 311 26 292 108 317 51 110 89 137 63 62 62 81 96 89 93
331 327 326 349 351 38 67 136 172 352 309 33 1 2 315 328 353 19 345 346 345 350 313 344 299 39 302 346 341 16 296 5 14 64 35 20 45 353 359 97 107 107 115 94 97
331 16 350 356 20 50 106 193 263 284 46 147 250 292 290 299 172 288 297 295 14 323 334 309 7 301 18 19 344 342 5 18 112 80 111 130 313 253 257 237 171 164 157 159 145
31 8 351 3 50 26 113 189 283 313 10 356 249 261 287 310 291 288 300 203 358 332 331 289 328 306 272 271 192 249 305 87 109 290 60 108 269 347 309 302 163 141 153 153 150
70 266 357 5 96 334 313 359 331 349 340 339 317 136 272 270 335 253 328 297 7 353 340 328 347 345 343 352 17 22 341 351 125 70 25 109 266 76 44 56 55 139 133 138 148
69 7 342 44 115 125 122 340 321 353 188 339 260 29 346 324 238 293 318 325 331 337 349 328 177 163 319 261 278 330 336 342 75 74 185 216 153 344 64 119 138 135 187 154 149
62 240 193 252 325 108 109 181 315 338 354 352 43 105 315 281 308 282 300 321 328 353 351 62 357 343 279 278 311 355 347 348 58 61 130 206 118 22 74 180 190 163 143 123 150
155 141 25 145 132 105 284 220 210 284 161 272 167 308 279 234 224 307 326 325 296 340 19 345 309 351 298 3 358 65 10 2 21 16 63 95 64 70 81 115 111 147 167 194 219
164 141 114 182 125 106 220 193 200 117 289 211 208 267 267 248 279 280 271 259 261 293 340 10 1 359 286 356 1 8 323 335 333 2 360 99 106 149 87 108 166 211 206 212 195